Flag for Australia Weather past 2 weeks in Wodonga, Victoria, Australia

Now
43 °F

Overcast.


Feels Like: 43 °F
Forecast: 37 / 54 °F
Wind: No wind

Location: Albury Aeroport Aws

Current Time: Jul 7, 2015 at 4:48:58 AM

Latest Report: Jul 7, 2015 at 3:00 AM


Visibility: N/A

Pressure: 30.12 "Hg

Humidity: 91%

Dew point: 41 °F

Location of WodongaLocation

Historic Weather in Wodonga — Graph

°F

Wodonga temperature yesterday

Maximum temperature yesterday: 50 °F (at 11:00 AM)
Minimum temperature yesterday: 42 °F (at 11:00 PM)
Average temperature yesterday: 46 °F

Past Weeks' High & Low Weather Summary

 TemperatureHumidityPressure
High61 °F (Jun 23, 2:00 PM)100% (Jun 23, 2:00 AM)30.56 "Hg (Jun 23, 2:00 AM)
Low29 °F (Jul 3, 5:00 AM)47% (Jul 3, 3:00 PM)30.05 "Hg (Jul 6, 2:00 PM)
Average44 °F87%30.33 "Hg
* Reported Jun 22 3:00 AM — Jul 7 3:00 AM, Wodonga, Weather by CustomWeather, © 2015

Note: Actual official high and low records may vary slightly from our data, if they occured in-between our weather recording intervals... More about our weather records

Advertising

Wodonga weather history for previous 24 hours

 ConditionsComfort  
Time TempWeatherWind HumidityBarometerVisibility
3:00 AM
Tue, Jul 7
43 °FOvercast.No wind91%30.12 "HgN/A
2:00 AM43 °FQuite cool.1 mph91%30.12 "HgN/A
12:00 AM43 °FOvercast.5 mph92%30.11 "HgN/A
11:00 PM
Mon, Jul 6
42 °FQuite cool.No wind93%30.12 "HgN/A
9:00 PM45 °FOvercast.No wind89%30.11 "HgN/A
8:00 PM46 °FCool.No wind86%30.10 "HgN/A
6:00 PM46 °FOvercast.3 mph79%30.08 "HgN/A
5:00 PM48 °FCool.2 mph74%30.07 "HgN/A
3:00 PM49 °FOvercast.6 mph70%30.06 "HgN/A
2:00 PM49 °FCool.6 mph69%30.05 "HgN/A
12:00 PM49 °FOvercast.1 mph68%30.08 "HgN/A
11:00 AM50 °FCool.2 mph69%30.09 "HgN/A
9:00 AM47 °FOvercast.No wind84%30.10 "HgN/A
8:00 AM44 °FQuite cool.No wind89%30.09 "HgN/A
6:00 AM44 °FOvercast.No wind89%30.08 "HgN/A
5:00 AM45 °FQuite cool.No wind89%30.09 "HgN/A
Weather by CustomWeather, © 2015

See weather overviewHow to use our weather pages